Find Starlink 3611

NORAD ID: 51779 Int'l Des: 2022-017 Owner: SPXS Country: US Constellation: starlink operational
LEOCIRCULAR

Live Position

Loading 3D Globe...

About Starlink 3611

Description loading...

Upcoming Passes

Passes for default location (London). Set your location on the main map for personalized predictions.

Altitude History

Loading altitude history...

Two-Line Element Set

1 51779U 22017M 26126.15499391 .00002841 00000-0 19654-3 0 9992
2 51779 53.2168 81.1955 0001420 82.1194 277.9959 15.08839128231242
Epoch: May 6, 2026 • Age: 25 hours

Current Status

Altitude 547.3 km
Velocity 7.59 km/s
Sub-Earth Point -24.66°S, 116.17°E
Launch Date Feb 25, 2022
Age 4.1 years
Type internet

Technical Details

Classification Payload
Mass 297.00 kg
Dry Mass 275.00 kg
Total Mass 297.00 kg
Length 0.20 m
Diameter 2.80 m
Span 9.00 m
Shape Box + pan
Manufacturer SPXS
Bus Type Starlink
Phase Status In Orbit
Owner/State SPXS/US

Most Searched